Regional Weather Roundup
Issued by NWS Jackson, KY

Home | Current Version | Previous Version | Graphics & Text | Print | Product List | Glossary On
Versions: 1 2 3 4 5 6 7 8 9 10 11 12 13 14 15 16 17 18 19 20 21 22 23 24 25 26 27 28 29 30 31 32 33 34 35 36 37 38 39 40 41 42 43 44 45 46 47 48 49 50
000
ASUS43 KJKL 230611
RWRJKL

EAST KENTUCKY HOURLY WEATHER ROUNDUP
NATIONAL WEATHER SERVICE JACKSON KY
200 AM EDT TUE SEP 23 2014

NOTE: "FAIR" INDICATES FEW OR NO CLOUDS BELOW 12,000 FEET WITH
NO SIGNIFICANT WEATHER AND/OR OBSTRUCTIONS TO VISIBILITY.

* THESE REPORTS ARE NOT UNDER NWS QUALITY CONTROL AND MAY NOT
  REPORT WEATHER SUCH AS PRECIPITATION AND FOG.

KYZ079-080-083-085-087-088-110-112-115-119-120-230700
...EASTERN KENTUCKY...

CITY           SKY/WX    TMP DP  RH WIND       PRES   REMARKS
JACKSON        CLEAR     53  43  68 CALM      30.27R
6HR MIN TEMP:  53; 6HR MAX TEMP:  59;

LONDON         CLEAR     49  45  86 CALM      30.26S
6HR MIN TEMP:  48; 6HR MAX TEMP:  60;

SOMERSET*      CLEAR     46  46 100 N3        30.27R
MONTICELLO*    CLEAR     44  44 100 CALM      30.27R
6HR MIN TEMP:  44; 6HR MAX TEMP:  56;

WILLIAMSBURG*  CLEAR     48  48 100 CALM      30.25
MIDDLESBORO*   CLEAR     47  47  99 CALM      30.26S
6HR MIN TEMP:  47; 6HR MAX TEMP:  59;

HARLAN APT*    CLOUDY    48  48 100 MISG      30.27S VSB<1/4
BLACK MTN*       N/A     45  43  93 E2          N/A
PIKEVILLE APT* CLEAR     50  48  93 CALM      30.27R
BIG SANDY*     CLEAR     49  49  99 CALM      30.28R FOG
6HR MIN TEMP:  48; 6HR MAX TEMP:  57;

MOREHEAD APT*  CLEAR     50  43  76 CALM      30.30S
$$

KYZ035-036-041-042-044-050-067-078-099-230700
...CENTRAL KENTUCKY...

CITY           SKY/WX    TMP DP  RH WIND       PRES   REMARKS
MT STERLING*   CLEAR     45  43  93 CALM      30.30R
FLEMING/MASON* CLEAR     48  43  81 E3        30.30R
DANVILLE*      CLEAR     45  43  93 CALM      30.28S
RICHMOND*      CLEAR     48  45  87 CALM      30.27S
LEXINGTON      CLEAR     50  43  77 NE7       30.28R
6HR MIN TEMP:  50; 6HR MAX TEMP:  60;

FRANKFORT      CLEAR     46  43  89 CALM      30.28R
6HR MIN TEMP:  45; 6HR MAX TEMP:  58;

$$

KYZ091>093-OHZ055-061-077-WVZ005-015-034-035-042-230700
...SOUTHERN OHIO/WEST VIRGINIA...

CITY           SKY/WX    TMP DP  RH WIND       PRES   REMARKS
COVINGTON      CLEAR     53  43  68 CALM      30.28S
COLUMBUS       CLEAR     50  41  71 CALM      30.29R
DAYTON         CLEAR     47  41  80 SW3       30.30R
WILMINGTON     CLEAR     43  40  89 CALM      30.29S
HUNTINGTON     CLEAR     48  44  86 CALM      30.28R
CHARLESTON     PTCLDY    47  47 100 CALM      30.27S FOG
PINEVILLE*     FOG       49  49 100 MISG      30.33R VSB 1/2
BECKLEY        CLEAR     43  40  89 SE3       30.29R
BLUEFIELD      CLEAR     48  42  80 CALM      30.27F
$$

VAZ002-007-008-TNZ017-027-036-066-071-230700
...SOUTHWEST VIRGINIA/EAST TENNESSEE...

CITY           SKY/WX    TMP DP  RH WIND       PRES   REMARKS
WISE*          CLEAR     50  46  87 NE5       30.28S
JONESVILLE*    CLEAR     45  45 100 CALM      30.28S
ABINGDON*      CLEAR     51  47  86 E6        30.26R
BRISTOL        CLEAR     50  46  86 CALM      30.24S
KNOXVILLE      CLEAR     54  50  86 NE7       30.21R
OAK RIDGE      CLEAR     54  49  83 NE3       30.24R
CROSSVILLE     CLEAR     52  45  77 NE3       30.23S
NASHVILLE      CLEAR     55  47  74 NE6       30.23S
$$

...KEY TO REMARKS...
VSB - VISIBILITY IN MILES
WCI - WIND CHILL INDEX
HX  - HEAT INDEX

$$


USA.gov is the U.S. government's official web portal to all federal, state and local government web resources and services.